This demonstration page uses our WeatherBlox Daily Observations layout. Learn more.

Left ArrowRight Arrow

53.62937, 11.41316

Hourly Observations for March 17, 2016

Temp ( °F °C ) Dew Point ( °F °C ) Humidity (%) Winds ( mph kmh ) Pressure ( in mb ) Visibility ( mi km ) Precip ( " mm )
1:20 am 01:20 Mostly Clear 25 -4 25 -4 100 100 ENE 2 4 30.50 1033 7 11 N/A
1:50 am 01:50 Mostly Clear 25 -4 23 -5 93 93 ENE 3 6 30.50 1033 4 6 N/A
2:20 am 02:20 Mostly Clear 25 -4 25 -4 100 100 ENE 3 6 30.48 1032 4 7 N/A
2:50 am 02:50 Mostly Clear 25 -4 23 -5 93 93 ENE 5 7 30.48 1032 4 7 N/A
5:20 am 05:20 Mostly Clear 23 -5 21 -6 93 93 ENE 2 4 30.45 1031 7 11 N/A
5:50 am 05:50 Mostly Clear with Fog 23 -5 21 -6 93 93 E 1 2 30.45 1031 30 48 N/A
6:20 am 06:20 Mostly Clear with Fog 21 -6 21 -6 100 100 VRB 1 2 30.45 1031 30 48 N/A
6:50 am 06:50 Partly Cloudy with Fog 23 -5 21 -6 93 93 VRB 1 2 30.45 1031 30 48 N/A
7:20 am 07:20 Partly Cloudy with Fog 25 -4 23 -5 93 93 VRB 1 2 30.45 1031 30 48 N/A
7:50 am 07:50 Mostly Sunny 28 -2 27 -3 93 93 VRB 1 2 30.45 1031 7 11 N/A
8:20 am 08:20 Mostly Sunny 30 -1 30 -1 100 100 VRB 2 4 30.45 1031 7 11 N/A
8:50 am 08:50 Mostly Sunny 36 2 32 0 87 87 VRB 2 4 30.45 1031 7 11 N/A
9:20 am 09:20 Mostly Sunny 39 4 32 0 75 75 VRB 2 4 30.45 1031 7 11 N/A
9:50 am 09:50 Mostly Sunny 43 6 32 0 66 66 W 5 7 30.45 1031 7 11 N/A
10:20 am 10:20 Mostly Sunny 45 7 32 0 61 61 VRB 3 6 30.45 1031 7 11 N/A
10:50 am 10:50 Mostly Sunny 46 8 32 0 57 57 VRB 3 6 30.42 1030 7 11 N/A
11:20 am 11:20 Mostly Sunny 48 9 32 0 54 54 NNW 6 9 30.42 1030 7 11 N/A
11:50 am 11:50 Mostly Sunny 48 9 32 0 54 54 NNW 7 11 30.42 1030 7 11 N/A
12:20 pm 12:20 Mostly Sunny 48 9 32 0 54 54 W 6 9 30.39 1029 7 11 N/A
12:50 pm 12:50 Mostly Sunny 50 10 34 1 54 54 WSW 7 11 30.39 1029 7 11 N/A
1:20 pm 13:20 Mostly Sunny 52 11 32 0 47 47 WSW 8 13 30.36 1028 7 11 N/A
1:50 pm 13:50 Mostly Sunny 52 11 34 1 50 50 W 9 15 30.36 1028 7 11 N/A
2:20 pm 14:20 Mostly Sunny 52 11 32 0 47 47 WNW 9 15 30.33 1027 7 11 N/A
2:50 pm 14:50 Mostly Sunny 54 12 32 0 44 44 W 7 11 30.33 1027 7 11 N/A
3:20 pm 15:20 Mostly Sunny 54 12 34 1 47 47 W 8 13 30.30 1026 7 11 N/A
3:50 pm 15:50 Mostly Sunny 54 12 30 -1 41 41 W 9 15 30.30 1026 7 11 N/A
4:20 pm 16:20 Mostly Sunny 52 11 32 0 47 47 W 8 13 30.27 1025 7 11 N/A
4:50 pm 16:50 Mostly Sunny 52 11 32 0 47 47 W 8 13 30.27 1025 7 11 N/A
5:20 pm 17:20 Mostly Sunny 52 11 32 0 47 47 W 8 13 30.24 1024 7 11 N/A
5:50 pm 17:50 Mostly Sunny 50 10 32 0 50 50 W 7 11 30.24 1024 7 11 N/A
6:20 pm 18:20 Mostly Sunny 48 9 32 0 54 54 W 5 7 30.24 1024 7 11 N/A
6:50 pm 18:50 Mostly Clear 45 7 34 1 66 66 WSW 3 6 30.24 1024 7 11 N/A

Powered by AerisWeather